Hoquiam, WA
on Wednesday, November 14, 2012

Wednesday
Previous Day Next Day
Daily Summary
 ActualAverageRecord
Temperature
Mean Temperature °F 46°F  
Max Temperature 54°F 51°F 65°F (1995)
Min Temperature 39°F 41°F 13°F (1955)
Degree Days
Heating Degree Days 17 19  
Month to date heating degree days 245  
Cooling Degree Days 0 0  
Month to date cooling degree days 0  
Year to date cooling degree days 23  
Moisture
Dew Point 46°F   
Average Humidity 95    
Maximum Humidity 100    
Minimum Humidity 75    
Precipitation
Precipitation 0.02 in 0.39 in 1.83 in (2001)
Month to date precipitation 5.05  
Year to date precipitation 51.47  
Wind
Wind Speed 2 mph   
Max Wind Speed 9 mph   
Max Gust Speed mph   
Visibility 6 miles   
Events Fog , Rain   

Key: T is trace of precipitation, MM is missing value
Source: NWS Daily Summary
Time(PST)TemperatureDew PointHumidity Pressure Visibility Wind DirectionWind SpeedGust SpeedPrecipitationEvents Conditions
12:04 AM 48.2°F 48.2°F 100% 30.20 in 10.0 miles South 3.5 mph - N/A   Overcast
12:14 AM 48.2°F 48.2°F 100% 30.20 in 10.0 miles Calm Calm - N/A   Overcast
12:23 AM 48.2°F 48.2°F 100% 30.20 in 10.0 miles South 8.1 mph - N/A   Overcast
12:32 AM 48.2°F 48.2°F 100% 30.20 in 10.0 miles South 9.2 mph - N/A   Mostly Cloudy
12:53 AM 48.9°F 48.0°F 97% 30.21 in 10.0 miles South 6.9 mph - N/A   Mostly Cloudy
1:17 AM 48.2°F 48.2°F 100% 30.20 in 10.0 miles South 5.8 mph - N/A   Overcast
1:38 AM 48.2°F 48.2°F 100% 30.20 in 9.0 miles Calm Calm - N/A   Overcast
1:53 AM 48.9°F 48.0°F 97% 30.22 in 5.0 miles SW 3.5 mph - 0.01 in Rain Light Rain
2:06 AM 50.0°F 48.2°F 94% 30.21 in 10.0 miles WSW 5.8 mph - 0.00 in   Overcast
2:24 AM 50.0°F 48.2°F 94% 30.21 in 10.0 miles Calm Calm - 0.00 in   Overcast
2:53 AM 50.0°F 48.0°F 93% 30.22 in 10.0 miles Calm Calm - 0.01 in   Overcast
3:04 AM 48.2°F 46.4°F 93% 30.21 in 10.0 miles Calm Calm - N/A   Overcast
3:37 AM 46.4°F 46.4°F 100% 30.21 in 2.5 miles Calm Calm - N/A   Mostly Cloudy
3:39 AM 46.4°F 46.4°F 100% 30.21 in 1.8 miles Calm Calm - N/A   Mostly Cloudy
3:49 AM 46.4°F 46.4°F 100% 30.22 in 1.0 miles Calm Calm - N/A   Mostly Cloudy
3:53 AM 46.9°F 46.0°F 97% 30.23 in 0.8 miles Calm Calm - N/A   Mostly Cloudy
4:07 AM 46.4°F 46.4°F 100% 30.22 in 1.8 miles Calm Calm - N/A   Overcast
4:14 AM 46.4°F 46.4°F 100% 30.22 in 2.5 miles Calm Calm - N/A   Overcast
4:23 AM 46.4°F 46.4°F 100% 30.22 in 1.2 miles Calm Calm - N/A   Overcast
4:32 AM 46.4°F 46.4°F 100% 30.22 in 1.2 miles Calm Calm - N/A   Overcast
4:53 AM 46.0°F 45.0°F 96% 30.23 in 1.0 miles Calm Calm - N/A   Mostly Cloudy
5:00 AM 46.4°F 44.6°F 93% 30.22 in 0.8 miles Calm Calm - N/A   Mostly Cloudy
5:53 AM 44.1°F 43.0°F 96% 30.25 in 0.8 miles Calm Calm - N/A   Mist
6:21 AM 42.8°F 42.8°F 100% 30.24 in 0.8 miles Calm Calm - N/A   Mist
6:48 AM 44.6°F 44.6°F 100% 30.25 in 0.2 miles Calm Calm - N/A Fog Fog
6:53 AM 43.0°F 43.0°F 100% 30.27 in 0.2 miles Calm Calm - N/A Fog Fog
7:33 AM 42.8°F 41.0°F 93% 30.26 in 0.5 miles Calm Calm - N/A Fog Fog
7:41 AM 42.8°F 41.0°F 93% 30.26 in 0.2 miles Calm Calm - N/A Fog Fog
7:48 AM 42.8°F 42.8°F 100% 30.27 in 0.2 miles Calm Calm - N/A Fog Fog
7:53 AM 42.1°F 42.1°F 100% 30.28 in 0.2 miles Calm Calm - N/A Fog Fog
8:02 AM 44.6°F 44.6°F 100% 30.27 in 0.5 miles Calm Calm - N/A Fog Fog
8:08 AM 44.6°F 44.6°F 100% 30.27 in 2.0 miles Calm Calm - N/A   Overcast
8:16 AM 44.6°F 44.6°F 100% 30.27 in 7.0 miles Calm Calm - N/A   Overcast
8:38 AM 44.6°F 44.6°F 100% 30.28 in 10.0 miles Calm Calm - N/A   Scattered Clouds
8:53 AM 45.0°F 45.0°F 100% 30.30 in 6.0 miles Calm Calm - N/A   Clear
9:04 AM 44.6°F 44.6°F 100% 30.29 in 1.8 miles East 4.6 mph - N/A   Clear
9:07 AM 44.6°F 44.6°F 100% 30.29 in 0.2 miles East 4.6 mph - N/A Fog Fog
9:38 AM 46.4°F 46.4°F 100% 30.29 in 0.2 miles Calm Calm - N/A Fog Fog
9:48 AM 46.4°F 46.4°F 100% 30.29 in 0.8 miles Calm Calm - N/A   Mist
9:53 AM 48.0°F 48.0°F 100% 30.30 in 1.2 miles Calm Calm - N/A   Mostly Cloudy
9:56 AM 48.2°F 46.4°F 93% 30.29 in 2.5 miles Calm Calm - N/A   Scattered Clouds
10:03 AM 48.2°F 48.2°F 100% 30.30 in 6.0 miles Calm Calm - N/A   Partly Cloudy
10:29 AM 48.2°F 48.2°F 100% 30.30 in 4.0 miles ESE 3.5 mph - N/A   Mostly Cloudy
10:39 AM 48.2°F 46.4°F 93% 30.30 in 2.0 miles East 4.6 mph - N/A   Mostly Cloudy
10:53 AM 48.9°F 48.0°F 97% 30.32 in 2.5 miles East 4.6 mph - N/A   Overcast
11:08 AM 48.2°F 48.2°F 100% 30.31 in 5.0 miles East 6.9 mph - N/A   Mostly Cloudy
11:53 AM 51.1°F 48.0°F 89% 30.32 in 10.0 miles Variable 3.5 mph - N/A   Overcast
12:53 PM 53.1°F 48.0°F 83% 30.31 in 10.0 miles Calm Calm - N/A   Overcast
1:17 PM 53.6°F 46.4°F 77% 30.30 in 10.0 miles Calm Calm - N/A   Scattered Clouds
1:53 PM 54.0°F 46.0°F 75% 30.30 in 10.0 miles Calm Calm - N/A   Clear
2:53 PM 52.0°F 46.0°F 80% 30.30 in 10.0 miles SSW 3.5 mph - N/A   Partly Cloudy
3:53 PM 51.1°F 46.0°F 83% 30.30 in 10.0 miles SW 6.9 mph - N/A   Clear
4:17 PM 51.8°F 46.4°F 82% 30.29 in 10.0 miles SW 3.5 mph - N/A   Mostly Cloudy
4:38 PM 50.0°F 46.4°F 87% 30.29 in 10.0 miles Calm Calm - N/A   Overcast
4:53 PM 50.0°F 46.9°F 89% 30.30 in 10.0 miles South 3.5 mph - N/A   Overcast
5:08 PM 50.0°F 48.2°F 94% 30.29 in 10.0 miles Calm Calm - N/A   Overcast
5:53 PM 50.0°F 46.9°F 89% 30.30 in 10.0 miles Calm Calm - N/A   Overcast
6:03 PM 48.2°F 46.4°F 93% 30.29 in 10.0 miles Calm Calm - N/A   Mostly Cloudy
6:53 PM 48.0°F 44.1°F 86% 30.30 in 10.0 miles North 3.5 mph - N/A   Clear
7:53 PM 46.9°F 43.0°F 86% 30.30 in 10.0 miles NE 4.6 mph - N/A   Clear
8:53 PM 45.0°F 43.0°F 93% 30.30 in 10.0 miles NE 6.9 mph - N/A   Clear
9:53 PM 43.0°F 41.0°F 93% 30.30 in 10.0 miles ENE 5.8 mph - N/A   Clear
10:53 PM 43.0°F 41.0°F 93% 30.28 in 10.0 miles ENE 4.6 mph - N/A   Clear
11:53 PM 39.9°F 39.0°F 97% 30.26 in 5.0 miles East 4.6 mph - N/A   Clear
Moon Phase
Nov. 14 Nov. 20 Nov. 28 Dec. 06 Dec. 13
Sunrise:07:18 AM (PST) Moon Rise:08:18 AM (PST)11/14
Sunset:04:41 PM (PST) Moon Set:05:31 PM (PST)11/14

Copyright © 2014 The Weather Underground, Inc.